Regional Weather Roundup
Issued by NWS Grand Forks, ND

Home | Current Version | Previous Version | Text Only | Print | Product List | Glossary Off
Versions: 1 2 3 4 5 6 7 8 9 10 11 12 13 14 15 16 17 18 19 20 21 22 23 24 25 26 27 28 29 30 31 32 33 34 35 36 37 38 39 40 41 42 43 44 45 46 47 48 49 50

000
ASUS43 KFGF 280131
RWRFGF
PRAIRIE TO PINES  WEATHER ROUNDUP
NATIONAL WEATHER SERVICE EASTERN NORTH DAKOTA/GRAND FORKS ND
800 PM CDT SUN JUL 27 2014

 **SATELLITE DATA USED TO AUGMENT SKY COVER AT AUTOMATED STATIONS**
 *****  WEATHER ACROSS EASTERN NORTH DAKOTA  *****

CITY           SKY/WX    TMP DP  RH WIND       PRES   REMARKS
GRAND FORKS    PTSUNNY   66  57  72 N7        30.18R
GRAND FRKS AFB CLOUDY    66  58  75 N9        30.20R
GRAND FRKS NWS   N/A     64 N/A N/A MISG        N/A
DEVILS LAKE    CLOUDY    63  54  72 NW8       30.22S
FARGO          CLOUDY    67  57  70 N13       30.17S
WAHPETON ARPT  CLOUDY    64  54  68 N9        30.17S
$$

 ***** WEATHER ACROSS CENTRAL AND WESTERN NORTH DAKOTA  *****

CITY           SKY/WX    TMP DP  RH WIND       PRES   REMARKS
BISMARCK       MOSUNNY   67  52  58 N10       30.27S
MINOT          PTSUNNY   67  50  54 NW9       30.27S
JAMESTOWN      PTSUNNY   65  53  65 N8        30.22S
MINOT AFB      CLOUDY    67  52  57 N5        30.26S
GARRISON         N/A     67  51  56 N8        30.27F
WILLISTON      SUNNY     72  52  49 E13       30.28S
DICKINSON      SUNNY     69  51  52 NE9       30.27F
HETTINGER      SUNNY     69  53  56 NE10      30.29F
$$

 *****  OTHER AIRPORT OBSERVATIONS IN OUR AREA  *****

CITY           SKY/WX    TMP DP  RH WIND       PRES   REMARKS
WALHALLA         N/A     64  55  72 N8          N/A
GRAFTON AIRPOR CLOUDY    66  55  68 N7        30.19S
VALLEY CITY AR CLOUDY    64  57  77 NW10      30.21S
CANDO          CLOUDY    63  54  72 N7        30.25S
CAVALIER APRT  CLOUDY    68  54  60 NW8       30.20R
GWINNER        CLOUDY    66  57  72 NW8       30.21S
SHEYENNE NWR     N/A     69  53  56 N7        29.95S
ROLLA          CLOUDY    61  55  82 N3        30.27S
 ***** THE ABOVE OBSERVATIONS ARE NON NWS ARE NOT QUALITY
       CONTROLLED AND MAY MIS-REPORT RAIN FOR SNOW...
$$

  *****  WEATHER ACROSS NORTHERN MINNESOTA  *****

CITY           SKY/WX    TMP DP  RH WIND       PRES   REMARKS
FLAG ISLAND    CLEAR     70  52  52 N8        30.14R
WARROAD        PTCLDY    66  57  72 W3        30.16R
ROSEAU         CLEAR     64  55  72 NW6       30.17R
HALLOCK        PTSUNNY   66  55  68 N3        30.18S
THF RVR FALLS  CLOUDY    64  55  72 N8        30.18R
BAUDETTE       PTCLDY    65  54  67 NW6       30.15R
WASKISH        PTCLDY    64  55  72 CALM      30.14R
CROOKSTON      CLOUDY    64  61  88 N5        30.19R
$$
  *****  WEATHER ACROSS CENTRAL AND WEST MINNESOTA  *****

CITY           SKY/WX    TMP DP  RH WIND       PRES   REMARKS
FOSSTON        CLOUDY    61  55  82 NW7       30.18R
BEMIDJI        CLOUDY    63  57  82 NW5       30.15R
PARK RAPIDS    CLOUDY    63  60  90 N9        30.14R
ELBOW LAKE     CLOUDY    64  57  80 NW12      30.15R
WADENA         CLOUDY    63  59  88 NW7       30.13R
DETROIT LAKES  HVY RAIN  63  59  88 N15G22    30.18R
MOORHEAD       CLOUDY    66  61  82 N10       30.18S
FERGUS FALLS   CLOUDY    64  55  72 N13       30.16R
MORRIS MN      MOCLDY    64  57  77 NW13G23   30.14S
STAPLES        CLOUDY    64  57  77 NE7       30.12R
$$
  *****  WEATHER ELSEWHERE ACROSS MINNESOTA  *****

CITY           SKY/WX    TMP DP  RH WIND       PRES   REMARKS
DULUTH         PTCLDY    61  57  87 W7        30.07S
INTRNTL FALLS  CLOUDY    67  52  58 N5        30.11R
ELY            MOCLDY    63  52  67 N5        30.08R
CLOQUET        CLOUDY    59  57  94 W3        30.09R
WHEATON        CLOUDY    63  55  77 NW9G16    30.19R
BRAINERD       CLOUDY    64  56  75 N8        30.11R
HIBBING        PTCLDY    62  54  74 NW6       30.09R
ALEXANDRIA     CLOUDY    65  59  81 N12       30.15R
SAINT CLOUD    CLEAR     70  58  65 N5        30.08R
MINNEAPOLIS    MOCLDY    70  58  65 N14G22    30.04R
$$

  *****  WEATHER ACROSS SOUTH DAKOTA  *****

CITY           SKY/WX    TMP DP  RH WIND       PRES   REMARKS
SIOUX FALLS    PTCLDY    66  55  67 NW13      30.17R
BROOKINGS      NOT AVBL
WATERTOWN      CLOUDY    64  56  75 N12       30.19R
HURON          CLEAR     67  54  63 N15       30.19S
SISSETON         N/A     66  56  70 N12       30.17R
ABERDEEN       CLOUDY    65  55  70 N14       30.22R
MITCHELL       PTCLDY    69  56  62 N16       30.20R
PIERRE         SUNNY     74  54  49 N14       30.21S
MOBRIDGE       MOSUNNY   68  52  56 N14G20    30.23S
RAPID CITY     SUNNY     76  52  43 E9        30.26S
$$

  *****  SOME WEATHER IN NEARBY STATES *****

CITY           SKY/WX    TMP DP  RH WIND       PRES   REMARKS
GLASGOW MT     SUNNY     82  44  26 N10       30.22S
GREAT FALLS MT SUNNY     88  34  14 NE9       30.18F
CHEYENNE WY    PTSUNNY   75  51  43 SE14      30.37F
SCOTTSBLUFF NE SUNNY     84  54  35 MISG      30.26S
OMAHA NE       PTCLDY    77  56  48 N14       30.11R
DES MOINES IA  PTCLDY    73  56  54 N15G24    30.05R
DAVENPORT IA   CLEAR     71  58  63 NW17G30   29.93R
CHICAGO IL     PTCLDY    73  54  51 NW15      29.81R
EAU CLAIRE WI  PTCLDY    64  53  67 N9        30.02R
LA CROSSE WI   CLEAR     73  58  59 N12       29.94R
$$

  *****  SOME NATIONAL WEATHER *****

CITY           SKY/WX    TMP DP  RH WIND       PRES   REMARKS
LA GUARDIA NY  MOCLDY    82  68  62 S8        29.66F
RALEIGH NC     CLOUDY    82  70  66 SW10      29.79F
ATLANTA GA     PTCLDY    85  71  63 SW7       29.96S HX  90
NEW ORLEANS LA MOCLDY    84  74  71 W9        30.02S HX  91
OKLAHOMA CITY  MOCLDY    86  62  44 NE15      30.06R
ALBUQUERQUE NM PTSUNNY   75  54  47 N15G22    30.24R
SALT LAKE CITY MOSUNNY   95  39  14 NW12      30.05F HX  91
LOS ANGELES CA PTSUNNY   73  63  70 W10       29.94F
BOISE ID       MOSUNNY   98  35  11 N7        29.99F HX  93
SEATTLE WA     MOSUNNY   82  53  36 N10       30.09F
$$

*** WEATHER ACROSS MANITOBA...SASKATCHEWAN AND ONTARIO ***
                ***ONTARIO***

CITY           SKY/WX    TMP DP  RH WIND       PRES   REMARKS
GERALDTON      CLOUDY    59  48  67 N6        30.02R
THUNDER BAY    PTCLDY    64  50  59 N5        30.04R
SIOUX LOOKOUT  MOCLDY    64  52  63 N3        30.11S
TORONTO        TSTM      66  63  88 N13       29.64R
BIG TROUT LK   PTCLDY    66  54  63 N2        30.04F
PICKLE LAKE    MOCLDY    66  46  48 NW5       30.07S
DRYDEN         CLEAR     64  52  63 N3        30.13R
KENORA         MOCLDY    66  54  63 N5        30.16R
$$
                *** MANITOBA***

CITY           SKY/WX    TMP DP  RH WIND       PRES   REMARKS
BRANDON        MOSUNNY   66  54  63 NW6       30.26S
DAUPHIN        MOSUNNY   68  52  56 N9        30.24S
ISLAND LAKE    PTSUNNY   72  54  53 NW3       30.15S
PILOT MOUND      N/A     61  54  77 NW6         N/A
THE PAS        MOSUNNY   72  50  46 NW2       30.24F
THOMPSON       PTSUNNY   77  50  38 N5        30.18S
WINNIPEG       MOSUNNY   66  54  63 NW10      30.20R
LYNN LAKE      SUNNY     75  41  29 W6        30.22S
CHURCHILL      PTSUNNY   68  52  56 N9        30.07F
GILLAM         CLOUDY    75  54  46 N6        30.11F
$$
                ***SASKATCHEWAN***

CITY           SKY/WX    TMP DP  RH WIND       PRES   REMARKS
ESTEVAN        MOSUNNY   68  54  60 NE5       30.28R
KINDERSLEY     MOSUNNY   73  55  53 S5        30.24F
LLOYDMINSTER   MOSUNNY   72  57  60 SW6       30.21F
PRINCE ALBERT  PTSUNNY   66  54  63 SE3       30.27
REGINA         PTSUNNY   68  57  68 E7        30.27F
YORKTON        PTSUNNY   66  54  63 VRB2      30.28S
N. BATTLEFORD    N/A     68  61  77 SE13G18   30.25F
LA RONGE       MOSUNNY   70  48  46 E7        30.24S
SASKATOON      MOSUNNY   72  63  73 SE9       30.27S
SWIFT CURRENT  SUNNY     72  55  56 N9        30.24F
$$
NOTE: THESE ARE AUTOMATED STATIONS WITH LIMITED QUALITY CONTROL
      "FAIR" INDICATES FEW OR NO CLOUDS BELOW 12,000 FEET WITH NO
      SIGNIFICANT WEATHER AND/OR OBSTRUCTIONS TO VISIBILITY.
      SKY/WX - SKY CONDITION AND SIGNIFICANT WEATHER.
      TMP - AIR TEMPERATURE.    DP   - DEWPOINT TEMPERATURE.
      RH  - RELATIVE HUMIDITY.  PRES - PRESSURE.
      HX  - HEAT INDEX.         WCI  - WIND CHILL INDEX.
$


USA.gov is the U.S. government's official web portal to all federal, state and local government web resources and services.